Weather History for Jakarta Soekarno-Hatta, Indonesia

Change the Weather History Date:

Tuesday, April 8, 2014

  Actual Average Record
Temperature  
Mean Temperature 86 °F -  
Max Temperature 94 °F - - ()
Min Temperature 77 °F - - ()
Cooling Degree Days 20    
Growing Degree Days 36 (Base 50)    
Moisture  
Dew Point 75 °F    
Average Humidity 75    
Maximum Humidity 94    
Minimum Humidity 51    
Precipitation  
Precipitation 0.00 in - - ()
Sea Level Pressure  
Sea Level Pressure 29.83 in    
Wind  
Wind Speed 9 mph ()    
Max Wind Speed 18 mph    
Max Gust Speed 22 mph    
Visibility 4.9 miles    
Events Thunderstorm    
T = Trace of Precipitation, MM = Missing Value Source: Averaged Metar Reports

Daily Weather History Graph

Daily Weather History Graph

Search for Another Location

Airport:

Trip Planner

Search our weather history database for the weather conditions in past years. The results will help you decide how hot, cold, wet, or windy it might be!

Date:

Astronomy

Apr. 08, 2014 Rise Set
Actual Time 5:55 AM WIB 5:55 PM WIB
Civil Twilight 5:34 AM WIB 6:16 PM WIB
Nautical Twilight 5:09 AM WIB 6:40 PM WIB
Astronomical Twilight 4:45 AM WIB 7:04 PM WIB
Moon 12:50 PM WIB (4/8) 12:12 AM WIB (4/8)
Length of Visible Light 12h 42m
Length of Day
12h 00m
First Quarter, 58% of the Moon is Illuminated
Apr 8
First Quarter
Apr 15
Full
Apr 22
Last Quarter
Apr 29
New
May 7
First Quarter

Hourly Weather History & Observations

Time (WIB) Temp. Heat Index Dew Point Humidity Pressure Visibility Wind Dir Wind Speed Gust Speed Precip Events Conditions
12:00 AM 80.6 °F 86.2 °F 75.2 °F 84% 29.89 in 4.3 mi NW 4.6 mph - N/A   Mostly Cloudy
12:30 AM 78.8 °F - 75.2 °F 89% 29.89 in 4.3 mi Variable 2.3 mph - N/A   Scattered Clouds
1:00 AM 80 °F - 76 °F 86% 29.88 in 3 mi West 5.8 mph - -   Partly Cloudy
1:00 AM 78.8 °F - 75.2 °F 89% 29.86 in 3.1 mi West 5.8 mph - N/A   Haze
1:30 AM 78.8 °F - 75.2 °F 89% 29.86 in 2.8 mi West 8.1 mph - N/A   Mostly Cloudy
2:00 AM 78.8 °F - 75.2 °F 89% 29.86 in 2.2 mi WSW 5.8 mph - N/A   Haze
2:30 AM 78.8 °F - 75.2 °F 89% 29.86 in 1.9 mi WSW 5.8 mph - N/A   Haze
3:00 AM 78.8 °F - 75.2 °F 89% 29.83 in 1.9 mi West 5.8 mph - N/A   Haze
3:30 AM 78.8 °F - 75.2 °F 89% 29.83 in 2.5 mi West 8.1 mph - N/A   Haze
4:00 AM 79 °F - 76 °F 87% 29.85 in 3 mi West 17.3 mph - -   Partly Cloudy
4:00 AM 78.8 °F - 75.2 °F 89% - 2.8 mi West 10.4 mph 17.3 mph N/A   Haze
4:30 AM 77.0 °F - 75.2 °F 94% 29.83 in 3.1 mi West 8.1 mph - N/A   Haze
5:00 AM 77.0 °F - 73.4 °F 89% 29.86 in 3.1 mi WSW 4.6 mph - N/A   Haze
5:30 AM 77.0 °F - 73.4 °F 89% 29.86 in 4.3 mi West 5.8 mph - N/A   Mostly Cloudy
6:00 AM 77.0 °F - 73.4 °F 89% 29.89 in 4.3 mi SW 8.1 mph - N/A   Mostly Cloudy
6:30 AM 78.8 °F - 75.2 °F 89% 29.89 in 4.3 mi SSW 10.4 mph - N/A   Mostly Cloudy
7:00 AM 78 °F - 76 °F 90% 29.88 in 5 mi South 12.7 mph - -  
7:00 AM 78.8 °F - 73.4 °F 83% - 5.0 mi South 12.7 mph - N/A Thunderstorm Thunderstorm
7:30 AM 80.6 °F 86.2 °F 75.2 °F 84% 29.86 in 6.2 mi SSW 13.8 mph - N/A   Mostly Cloudy
8:00 AM 80.6 °F 85.4 °F 73.4 °F 79% 29.86 in 5.6 mi SSW 13.8 mph - N/A   Scattered Clouds
8:30 AM 84.2 °F 90.9 °F 73.4 °F 70% 29.86 in 6.2 mi SW 9.2 mph - N/A   Partly Cloudy
9:00 AM 86.0 °F 93.4 °F 73.4 °F 66% 29.86 in 6.2 mi SW 10.4 mph - N/A   Partly Cloudy
9:30 AM 87.8 °F 97.6 °F 75.2 °F 66% 29.86 in 6.2 mi WSW 10.4 mph - N/A   Partly Cloudy
10:00 AM 88 °F - 74 °F 54% 29.87 in 6 mi West 11.5 mph - -   Scattered Clouds
10:00 AM 89.6 °F 99.8 °F 75.2 °F 62% 29.86 in 6.2 mi WSW 8.1 mph - N/A   Partly Cloudy
10:30 AM 89.6 °F 99.8 °F 75.2 °F 62% 29.83 in 6.2 mi West 13.8 mph - N/A   Partly Cloudy
11:00 AM 89.6 °F 99.8 °F 75.2 °F 62% 29.83 in 6.2 mi West 12.7 mph - N/A   Partly Cloudy
11:30 AM 89.6 °F 99.8 °F 75.2 °F 62% 29.80 in 6.2 mi West 12.7 mph - N/A   Partly Cloudy
12:00 PM 89.6 °F 102.2 °F 77.0 °F 66% 29.80 in 6.2 mi WNW 10.4 mph - N/A   Partly Cloudy
1:00 PM 91 °F - 76 °F 53% 29.78 in 6 mi WNW 10.4 mph - -   Scattered Clouds
1:00 PM 91.4 °F 105.1 °F 77.0 °F 63% 29.77 in 6.2 mi WNW 8.1 mph - N/A   Partly Cloudy
1:30 PM 91.4 °F 105.1 °F 77.0 °F 63% 29.74 in 6.2 mi West 15.0 mph - N/A   Partly Cloudy
2:00 PM 93.2 °F 105.0 °F 75.2 °F 56% 29.74 in 6.2 mi West 15.0 mph - N/A   Partly Cloudy
2:30 PM 93.2 °F 102.4 °F 73.4 °F 52% 29.74 in 6.2 mi West 13.8 mph - N/A   Partly Cloudy
3:00 PM 91.4 °F 102.5 °F 75.2 °F 59% 29.74 in 6.2 mi West 13.8 mph - N/A   Partly Cloudy
3:30 PM 91.4 °F 102.5 °F 75.2 °F 59% 29.71 in 6.2 mi West 16.1 mph 20.7 mph N/A   Partly Cloudy
4:00 PM 90 °F - 74 °F 51% 29.74 in 6 mi West 18.4 mph - -   Scattered Clouds
4:00 PM 91.4 °F 102.5 °F 75.2 °F 59% 29.71 in 6.2 mi West 13.8 mph 21.9 mph N/A   Partly Cloudy
4:30 PM 91.4 °F 102.5 °F 75.2 °F 59% 29.74 in 6.2 mi West 13.8 mph - N/A   Partly Cloudy
5:00 PM 87.8 °F 97.6 °F 75.2 °F 66% 29.74 in 6.2 mi West 15.0 mph - N/A   Partly Cloudy
5:30 PM 87.8 °F 97.6 °F 75.2 °F 66% 29.77 in 6.2 mi West 13.8 mph - N/A   Partly Cloudy
6:00 PM 86.0 °F 95.1 °F 75.2 °F 70% 29.80 in 5.0 mi WSW 13.8 mph - N/A   Partly Cloudy
6:30 PM 84.2 °F 94.1 °F 77.0 °F 79% 29.80 in 5.0 mi WSW 11.5 mph - N/A   Partly Cloudy
7:00 PM 84 °F - 76 °F 70% 29.83 in 6 mi WSW 13.8 mph - -   Partly Cloudy
7:00 PM 84.2 °F 92.3 °F 75.2 °F 74% 29.83 in 4.3 mi WSW 12.7 mph - N/A   Partly Cloudy
7:30 PM 82.4 °F 89.5 °F 75.2 °F 79% 29.83 in 4.3 mi WSW 9.2 mph - N/A   Partly Cloudy
8:00 PM 82.4 °F 89.5 °F 75.2 °F 79% 29.86 in 5.0 mi WSW 11.5 mph - N/A   Partly Cloudy
8:30 PM 82.4 °F 89.5 °F 75.2 °F 79% 29.86 in 5.0 mi WSW 9.2 mph - N/A   Partly Cloudy
9:00 PM 82.4 °F 88.2 °F 73.4 °F 74% 29.86 in 5.0 mi SW 8.1 mph - N/A   Partly Cloudy
9:30 PM 82.4 °F 88.2 °F 73.4 °F 74% 29.83 in 5.0 mi WSW 11.5 mph - N/A   Partly Cloudy
10:00 PM 83 °F - 74 °F 69% 29.86 in 6 mi WSW 15.0 mph - -   Scattered Clouds
10:00 PM 82.4 °F 88.2 °F 73.4 °F 74% 29.83 in 5.0 mi WSW 11.5 mph - N/A Thunderstorm Thunderstorm
10:30 PM 82.4 °F 89.5 °F 75.2 °F 79% - 5.0 mi WSW 10.4 mph - N/A Thunderstorm Thunderstorm
11:00 PM 80.6 °F 86.2 °F 75.2 °F 84% - 4.3 mi SW 9.2 mph - N/A Thunderstorm Thunderstorm
11:30 PM 80.6 °F 86.2 °F 75.2 °F 84% 29.86 in 4.3 mi WSW 8.1 mph - N/A   Partly Cloudy